Estació meteorològica de Susqueda - Presa de (La Selva, Susqueda)

Consulta les dades en temps real de l'estació meteorològica de Susqueda - Presa de





Hora UTC 02:35
Temperatura 22.7 ºC
Humitat 66.0 %
Pressió 1018.7 hPa
Pluja 0.0 mm
Velocitat vent 0.0 km/h
Direcció vent W

Webcam

Dades diàries 2026-09-06



Hora UTC (hivern +1h; estiu +2h)
Temperatura (ºC) Humitat (%) Pressió (hPa) Velocitat vent (km/h) Precipitació (mm)
Hora UTC Aire Humitat Pressió Vel. Dir. Vel. Max Dir. Intent. màx 5 min.
00:05 24.3 60.0 1019.1 0.0 WSW 0.0 0.0
00:10 24.1 61.0 1019.0 0.0 WSW 8.0 0.0
00:15 24.1 62.0 1019.0 0.0 W 1.6 0.0
00:20 23.9 62.0 1019.0 0.0 WSW 8.0 0.0
00:25 23.8 62.0 1019.0 0.0 W 8.0 0.0
00:30 23.8 62.0 1018.9 0.0 W 8.0 0.0
00:35 23.8 62.0 1018.9 1.6 WNW 8.0 0.0
00:40 23.8 62.0 1018.9 9.7 W 11.3 0.0
00:45 23.6 62.0 1018.9 6.4 WNW 11.3 0.0
00:50 23.6 62.0 1018.9 1.6 W 9.7 0.0
00:55 23.6 62.0 1018.9 9.7 W 11.3 0.0
01:00 23.5 63.0 1018.8 0.0 W 11.3 0.0
01:05 23.5 63.0 1018.7 8.0 WSW 11.3 0.0
01:10 23.5 63.0 1018.7 0.0 WNW 11.3 0.0
01:15 23.4 63.0 1018.8 1.6 W 8.0 0.0
01:20 23.4 63.0 1018.8 0.0 W 9.7 0.0
01:25 23.3 64.0 1018.8 9.7 W 11.3 0.0
01:30 23.3 64.0 1018.9 8.0 WSW 11.3 0.0
01:35 23.2 64.0 1018.8 0.0 WNW 11.3 0.0
01:40 23.3 64.0 1018.8 0.0 W 11.3 0.0
01:45 23.1 64.0 1018.9 0.0 WNW 11.3 0.0
01:50 23.2 64.0 1018.8 6.4 WNW 11.3 0.0
01:55 23.2 64.0 1018.8 8.0 WNW 11.3 0.0
02:00 23.2 64.0 1018.7 1.6 WNW 11.3 0.0
02:05 23.1 64.0 1018.7 0.0 W 9.7 0.0
02:10 23.0 65.0 1018.8 0.0 W 9.7 0.0
02:15 22.9 65.0 1018.8 1.6 W 8.0 0.0
02:20 22.9 65.0 1018.8 0.0 WNW 8.0 0.0
02:25 22.8 66.0 1018.8 0.0 W 8.0 0.0
02:30 22.7 66.0 1018.7 4.8 W 8.0 0.0
02:35 22.7 66.0 1018.7 0.0 W 9.7 0.0
Màxima 24.3 66.0 1019.1 9.7 W 11.3 0.0
Mínima 20 60.0 1018.7
Total 0.0